Weather History for Independence, KS

Change the Weather History Date:

Monday, September 2, 2013

  Actual Average (KCFV) Record (KCFV)
Temperature  
Mean Temperature 72 °F -  
Max Temperature 84 °F 89 °F 108 °F (2000)
Min Temperature 60 °F 63 °F 59 °F (2004)
Cooling Degree Days 7    
Growing Degree Days 22 (Base 50)    
Moisture  
Dew Point 60 °F    
Average Humidity 65    
Maximum Humidity 94    
Minimum Humidity 40    
Precipitation  
Precipitation 0.00 in - - ()
Sea Level Pressure  
Sea Level Pressure 30.00 in    
Wind  
Wind Speed 7 mph (NNE)    
Max Wind Speed 13 mph    
Max Gust Speed 16 mph    
Visibility 10 miles    
Events      
Averages and records for this station are not official NWS values.
T = Trace of Precipitation, MM = Missing Value Source: NWS Daily Summary

Daily Weather History Graph

Daily Weather History Graph

Search for Another Location

Airport:

Trip Planner

Search our weather history database for the weather conditions in past years. The results will help you decide how hot, cold, wet, or windy it might be!

Date:

Astronomy

Sep. 02, 2013 Rise Set
Actual Time 6:54 AM CDT 7:49 PM CDT
Civil Twilight 6:28 AM CDT 8:16 PM CDT
Nautical Twilight 5:56 AM CDT 8:47 PM CDT
Astronomical Twilight 5:24 AM CDT 9:20 PM CDT
Moon 4:15 AM CDT (9/2) 6:02 PM CDT (9/2)
Length of Visible Light 13h 48m
Length of Day
12h 55m
Waning Crescent, 8% of the Moon is Illuminated
Sep 2
Waning Crescent
Sep 5
New
Sep 12
First Quarter
Sep 19
Full
Sep 26
Last Quarter

Hourly Weather History & Observations

Time (CDT) Temp. Heat Index Dew Point Humidity Pressure Visibility Wind Dir Wind Speed Gust Speed Precip Events Conditions
12:15 AM 73.4 °F - 64.4 °F 73% 29.95 in 10.0 mi North 10.4 mph - N/A   Scattered Clouds
12:35 AM 73.4 °F - 64.4 °F 73% 29.96 in 10.0 mi North 6.9 mph - N/A   Mostly Cloudy
12:55 AM 73.4 °F - 64.4 °F 73% 29.96 in 10.0 mi NNE 8.1 mph - N/A   Mostly Cloudy
1:15 AM 71.6 °F - 62.6 °F 73% 29.96 in 10.0 mi North 6.9 mph - N/A   Scattered Clouds
1:35 AM 69.8 °F - 62.6 °F 78% 29.97 in 10.0 mi North 5.8 mph - N/A   Scattered Clouds
1:55 AM 69.8 °F - 62.6 °F 78% 29.97 in 10.0 mi North 8.1 mph - N/A   Scattered Clouds
2:15 AM 69.8 °F - 62.6 °F 78% 29.97 in 10.0 mi North 6.9 mph - N/A   Clear
2:35 AM 69.8 °F - 62.6 °F 78% 29.97 in 10.0 mi North 6.9 mph - N/A   Clear
2:55 AM 68.0 °F - 62.6 °F 83% 29.97 in 10.0 mi North 8.1 mph - N/A   Clear
3:15 AM 68.0 °F - 60.8 °F 78% 29.97 in 10.0 mi North 6.9 mph - N/A   Clear
3:35 AM 68.0 °F - 60.8 °F 78% 29.97 in 10.0 mi NNE 6.9 mph - N/A   Clear
3:55 AM 66.2 °F - 60.8 °F 83% 29.97 in 10.0 mi North 8.1 mph - N/A   Clear
4:15 AM 64.4 °F - 60.8 °F 88% 29.98 in 10.0 mi North 5.8 mph - N/A   Clear
4:35 AM 64.4 °F - 60.8 °F 88% 29.98 in 10.0 mi North 6.9 mph - N/A   Clear
4:55 AM 64.4 °F - 59.0 °F 83% 29.98 in 10.0 mi NNE 4.6 mph - N/A   Clear
5:15 AM 62.6 °F - 59.0 °F 88% 29.98 in 10.0 mi NE 4.6 mph - N/A   Clear
5:35 AM 62.6 °F - 59.0 °F 88% 29.98 in 10.0 mi NNE 6.9 mph - N/A   Clear
5:55 AM 62.6 °F - 59.0 °F 88% 29.99 in 10.0 mi NNE 4.6 mph - N/A   Clear
6:15 AM 60.8 °F - 59.0 °F 94% 30.00 in 10.0 mi Calm Calm - N/A   Clear
6:35 AM 62.6 °F - 59.0 °F 88% 30.00 in 10.0 mi Calm Calm - N/A   Clear
6:55 AM 60.8 °F - 59.0 °F 94% 30.00 in 10.0 mi Calm Calm - N/A   Clear
7:15 AM 62.6 °F - 59.0 °F 88% 30.01 in 10.0 mi Calm Calm - N/A   Clear
7:35 AM 62.6 °F - 59.0 °F 88% 30.02 in 10.0 mi North 4.6 mph - N/A   Clear
7:55 AM 64.4 °F - 60.8 °F 88% 30.02 in 10.0 mi NNE 3.5 mph - N/A   Clear
8:15 AM 68.0 °F - 60.8 °F 78% 30.03 in 10.0 mi NNE 6.9 mph - N/A   Clear
8:35 AM 68.0 °F - 60.8 °F 78% 30.03 in 10.0 mi NNE 8.1 mph - N/A   Clear
8:55 AM 69.8 °F - 60.8 °F 73% 30.03 in 10.0 mi North 6.9 mph - N/A   Clear
9:15 AM 71.6 °F - 60.8 °F 69% 30.03 in 10.0 mi NNE 8.1 mph - N/A   Clear
9:35 AM 73.4 °F - 60.8 °F 65% 30.04 in 10.0 mi NNE 6.9 mph - N/A   Clear
9:55 AM 73.4 °F - 60.8 °F 65% 30.05 in 10.0 mi NE 10.4 mph - N/A   Clear
10:15 AM 77.0 °F - 60.8 °F 57% 30.05 in 10.0 mi NNE 9.2 mph - N/A   Clear
10:35 AM 77.0 °F - 60.8 °F 57% 30.06 in 10.0 mi NE 6.9 mph - N/A   Clear
10:55 AM 78.8 °F - 60.8 °F 54% 30.06 in 10.0 mi NE 5.8 mph - N/A   Clear
11:15 AM 78.8 °F - 60.8 °F 54% 30.07 in 10.0 mi NNE 5.8 mph - N/A   Clear
11:35 AM 78.8 °F - 60.8 °F 54% 30.06 in 10.0 mi NNE 6.9 mph - N/A   Scattered Clouds
11:55 AM 78.8 °F - 59.0 °F 51% 30.06 in 10.0 mi North 12.7 mph - N/A   Scattered Clouds
12:15 PM 80.6 °F 81.1 °F 59.0 °F 48% 30.06 in 10.0 mi ENE 8.1 mph - N/A   Scattered Clouds
12:35 PM 80.6 °F 81.1 °F 59.0 °F 48% 30.05 in 10.0 mi NNE 9.2 mph - N/A   Clear
12:55 PM 82.4 °F 82.5 °F 59.0 °F 45% 30.05 in 10.0 mi NE 9.2 mph - N/A   Clear
1:15 PM 82.4 °F 82.5 °F 59.0 °F 45% 30.04 in 10.0 mi North 5.8 mph - N/A   Clear
1:35 PM 82.4 °F 82.5 °F 59.0 °F 45% 30.03 in 10.0 mi NE 11.5 mph 16.1 mph N/A   Clear
1:55 PM 82.4 °F 82.0 °F 57.2 °F 42% 30.03 in 10.0 mi NE 9.2 mph - N/A   Clear
2:15 PM 82.4 °F 82.5 °F 59.0 °F 45% 30.03 in 10.0 mi North 9.2 mph 16.1 mph N/A   Scattered Clouds
2:35 PM 82.4 °F 82.5 °F 59.0 °F 45% 30.03 in 10.0 mi NNE 6.9 mph - N/A   Scattered Clouds
2:55 PM 82.4 °F 82.5 °F 59.0 °F 45% 30.02 in 10.0 mi NNE 4.6 mph - N/A   Scattered Clouds
3:15 PM 84.2 °F 83.8 °F 59.0 °F 42% 30.01 in 10.0 mi NE 6.9 mph - N/A   Clear
3:35 PM 84.2 °F 83.8 °F 59.0 °F 42% 30.00 in 10.0 mi ENE 10.4 mph - N/A   Clear
3:55 PM 84.2 °F 83.5 °F 57.2 °F 40% 30.00 in 10.0 mi NE 5.8 mph - N/A   Clear
4:15 PM 84.2 °F 83.8 °F 59.0 °F 42% 29.99 in 10.0 mi NNE 9.2 mph - N/A   Clear
4:35 PM 84.2 °F 83.8 °F 59.0 °F 42% 29.98 in 10.0 mi East 8.1 mph - N/A   Clear
4:55 PM 84.2 °F 83.5 °F 57.2 °F 40% 29.98 in 10.0 mi NNE 8.1 mph - N/A   Clear
5:15 PM 84.2 °F 83.5 °F 57.2 °F 40% 29.98 in 10.0 mi NNE 8.1 mph - N/A   Clear
5:35 PM 84.2 °F 83.8 °F 59.0 °F 42% 29.98 in 10.0 mi ENE 3.5 mph - N/A   Clear
5:55 PM 84.2 °F 83.8 °F 59.0 °F 42% 29.97 in 10.0 mi North 4.6 mph - N/A   Clear
6:15 PM 82.4 °F 82.0 °F 57.2 °F 42% 29.97 in 10.0 mi NNE 9.2 mph - N/A   Clear
6:35 PM 82.4 °F 82.5 °F 59.0 °F 45% 29.97 in 10.0 mi North 8.1 mph - N/A   Clear
6:55 PM 80.6 °F 81.1 °F 59.0 °F 48% 29.97 in 10.0 mi North 8.1 mph - N/A   Clear
7:15 PM 78.8 °F - 59.0 °F 51% 29.97 in 10.0 mi North 5.8 mph - N/A   Clear
7:35 PM 77.0 °F - 60.8 °F 57% 29.97 in 10.0 mi NE 4.6 mph - N/A   Clear
7:55 PM 77.0 °F - 60.8 °F 57% 29.97 in 10.0 mi NNE 4.6 mph - N/A   Clear
8:15 PM 73.4 °F - 60.8 °F 65% 29.97 in 10.0 mi North 5.8 mph - N/A   Clear
8:35 PM 71.6 °F - 60.8 °F 69% 29.98 in 10.0 mi NNE 5.8 mph - N/A   Clear
8:55 PM 71.6 °F - 60.8 °F 69% 29.99 in 10.0 mi North 4.6 mph - N/A   Clear
9:15 PM 71.6 °F - 60.8 °F 69% 29.99 in 10.0 mi NNE 5.8 mph - N/A   Clear
9:35 PM 69.8 °F - 60.8 °F 73% 30.00 in 10.0 mi North 4.6 mph - N/A   Clear
9:55 PM 69.8 °F - 60.8 °F 73% 30.00 in 10.0 mi NNE 5.8 mph - N/A   Clear
10:15 PM 69.8 °F - 60.8 °F 73% 30.01 in 10.0 mi North 4.6 mph - N/A   Clear
10:35 PM 68.0 °F - 60.8 °F 78% 30.01 in 10.0 mi North 4.6 mph - N/A   Clear
10:55 PM 68.0 °F - 60.8 °F 78% 30.02 in 10.0 mi North 5.8 mph - N/A   Clear
11:15 PM 68.0 °F - 60.8 °F 78% 30.02 in 10.0 mi North 5.8 mph - N/A   Clear
11:35 PM 68.0 °F - 60.8 °F 78% 30.02 in 10.0 mi NE 4.6 mph - N/A   Clear
11:55 PM 68.0 °F - 60.8 °F 78% 30.02 in 10.0 mi NE 3.5 mph - N/A   Clear